Regional Weather Roundup
Issued by NWS

Home | Current Version | Previous Version | Graphics & Text | Print | Product List | Glossary On
Versions: 1 2 3 4 5 6 7 8 9 10 11 12 13 14 15 16 17 18 19 20 21 22 23 24 25 26 27 28 29 30 31 32 33 34 35 36 37 38 39 40 41 42 43 44 45 46 47 48 49 50
011
ASUS43 KLOT 192009
RWRIL

ILLINOIS REGIONAL WEATHER ROUNDUP
NATIONAL WEATHER SERVICE CHICAGO/ROMEOVILLE IL
300 PM CDT SAT AUG 19 2017

NOTE: "FAIR" INDICATES FEW OR NO CLOUDS BELOW 12,000 FEET WITH NO
SIGNIFICANT WEATHER AND/OR OBSTRUCTIONS TO VISIBILITY.

* THESE STATIONS ARE NOT UNDER NWS QUALITY CONTROL. THEY ALSO MAY NOT
  REPORT WEATHER SUCH AS PRECIPITATION OR FOG.

ILZ001-002-007-009-015-016-024-192100-
NORTHWEST ILLINOIS

CITY           SKY/WX    TMP DP  RH WIND       PRES   REMARKS
MOLINE         SUNNY     82  61  48 S6        29.95F HX  83
STERLING*      SUNNY     80  60  50 VRB5      29.97S HX  81
SAVANNA*       SUNNY     80  61  52 W5        29.96F HX  81
$$

ILZ003-004-008-010-011-017-018-192100-
NORTH CENTRAL ILLINOIS

CITY           SKY/WX    TMP DP  RH WIND       PRES   REMARKS
ROCKFORD       MOSUNNY   81  59  47 W5        29.97F HX  81
FREEPORT*      SUNNY     78  59  52 S6        29.99S
ROCHELLE*      MOSUNNY   78  62  56 W3        29.98S HX  80
DE KALB*       SUNNY     79  60  52 CALM      29.98F HX  80
PERU*          SUNNY     79  58  49 N5        29.97F HX  80
$$

ILZ005-006-012>014-019>023-192100-
NORTHEAST ILLINOIS

CITY           SKY/WX    TMP DP  RH WIND       PRES   REMARKS
CHICAGO-OHARE  MOSUNNY   83  54  36 VRB3      29.94F HX  82
CHICAGO-MIDWAY MOSUNNY   82  56  40 E7        29.95F HX  82
AURORA         SUNNY     81  60  48 NW5       29.96F HX  82
LANSING*       SUNNY     81  52  36 E7        29.96F HX  80
JOLIET*        SUNNY     82  57  42 CALM      29.95F HX  82
WAUKEGAN       SUNNY     78  64  61 SE9       29.95F HX  80
DUPAGE AIRPORT SUNNY     82  57  42 CALM      29.95F HX  82
KANKAKEE*      SUNNY     81  60  48 SE3       29.97S HX  82
WHEELING       SUNNY     82  54  37 NW3       29.96F HX  81
MORRIS*        SUNNY     80  57  45 CALM      29.95F HX  80
ROMEOVILLE*    SUNNY     82  53  37 CALM      29.96F HX  81
NORTHERLY ISL    N/A     75  62  64 E7          N/A
$$

LMZ740>746-192100-
SOUTHERN LAKE MICHIGAN

STATION/POSITION SKY/WX   TEMP    WIND        PRES    VSBY  WAVE
                          AIR SEA DIR/SP/G                  HT/PER
                          (F)     (DEG/KT/KT) (MB)    (MI)  (FT/S)
SOUTHERN BUOY              69 72  260/  6/  6 1014.7          1/ 5
WILMETTE HARBOR            72 74  120/  8/ 10   N/A           1/ 4
HARRISON CRIB              72     110/  5/  6   N/A
CALUMET HARBOR             73      50/  5/  8 1014.4F
BURNS HARBOR               71      10/  4/  5 1015.6F
MICHIGAN CITY              75     320/  3/  4   N/A
MICHIGAN CITY 6N           71 76  320/  4/  6   N/A           1/ 4
ST. JOSEPH                 72 80  330/  4/  6 1014.7          1/ 4
$$

ILZ025>027-034>036-040-047-049-050-058-095>099-192100-
WEST-CENTRAL ILLINOIS

CITY           SKY/WX    TMP DP  RH WIND       PRES   REMARKS
QUINCY         SUNNY     86  65  49 CALM      29.93F HX  88
MACOMB*        SUNNY     83  66  56 SE3       29.98S HX  85
JACKSONVILLE*  MOSUNNY   85  66  53 NW3       29.94S HX  87
PITTSFIELD*    MOSUNNY   87  68  51 SW3       29.95F HX  90
$$

ILZ028>032-037-038-041>044-048-051>054-059>061-192100-
CENTRAL ILLINOIS

CITY           SKY/WX    TMP DP  RH WIND       PRES   REMARKS
PONTIAC        SUNNY     82  60  46 CALM      29.97S HX  82
BLOOMINGTON    SUNNY     82  62  50 VRB6      29.98S HX  83
DECATUR        SUNNY     85  68  56 VRB5      29.94F HX  88
PEORIA         SUNNY     86  58  38 CALM      29.95F HX  85
LACON*         SUNNY     82  59  45 E5        29.96S HX  82
LINCOLN*       SUNNY     85  69  57 E3        29.95S HX  89
SPRINGFIELD    SUNNY     88  70  55 CALM      29.94F HX  93
TAYLORVILLE    SUNNY     85  70  60 W6        29.95S HX  90
$$

ILZ033-039-045-046-055>057-062-063-192100-
EAST-CENTRAL ILLINOIS

CITY           SKY/WX    TMP DP  RH WIND       PRES   REMARKS
CHAMPAIGN      MOSUNNY   85  63  47 S3        29.95F HX  86
RANTOUL*       SUNNY     86  64  47 SW3       29.95F HX  87
MATTOON        PTSUNNY   86  70  58 SW9       29.94S HX  90
PARIS*         PTSUNNY   88  69  53 CALM      29.94F HX  92
$$

ILZ079-100>102-192100-
SOUTHWEST ILLINOIS

CITY           SKY/WX    TMP DP  RH WIND       PRES   REMARKS
ALTON          MOSUNNY   88  70  55 VRB5      29.94F HX  92
BELLEVILLE     SUNNY     89  70  53 SW7       29.94F HX  93
CAHOKIA*       SUNNY     92  65  40 CALM      29.92F HX  94
SPARTA*        SUNNY     87  69  53 CALM      29.96S HX  91
$$

ILZ064>066-069>071-074>076-080>082-084>086-088>090-092>094-192100-
SOUTH-CENTRAL ILLINOIS

CITY           SKY/WX    TMP DP  RH WIND       PRES   REMARKS
CARBONDALE     SUNNY     88  71  57 W3        29.94F HX  94
CAIRO*         SUNNY     90  73  58 S3        29.93F HX  97
EFFINGHAM*     MOSUNNY   87  71  57 S3        29.95F HX  92
MARION         SUNNY     90  70  51 SW5       29.95F HX  95
MT. VERNON       N/A     88  71  57 W6        29.94F HX  94
CENTRALIA*     MOSUNNY   89  72  57 SW9       29.94F HX  96
SALEM*         MOSUNNY   90  69  48 SW8       29.94F HX  94
METROPOLIS*    RAIN      91  71  52 CALM      29.95F HX  97
$$

ILZ067-068-072-073-078-083-087-091-192100-
SOUTHEAST ILLINOIS

CITY           SKY/WX    TMP DP  RH WIND       PRES   REMARKS
LAWRENCEVILLE  MOSUNNY   91  67  44 SW8       29.94S HX  94
FLORA*         MOSUNNY   86  73  64 S5        29.94F HX  92
FAIRFIELD*     PTSUNNY   87  71  58 S3        29.93F HX  93
HARRISBURG*    SUNNY     91  70  51 W6        29.94F HX  96
ROBINSON*      MOSUNNY   85  71  62 CALM      29.93F HX  89
CARMI*         SUNNY     85  75  70 CALM      29.94F HX  94
$$

ABBREVIATIONS USED IN REMARKS
   TC - TEMPERATURE IN CELSIUS
  WCI - WIND CHILL INDEX
   HX - HEAT INDEX
  VSB - VISIBILITY
$$





USA.gov is the U.S. government's official web portal to all federal, state and local government web resources and services.